This is the latest recevied weather packets stored in our database for station/object K1RFS. If no packets are shown the sender has not sent any weather packets the latest 10 day(s).
| Time | Temp. | Humidity | Pressure | Rain* | Wind** | Luminosity | Snow |
|---|---|---|---|---|---|---|---|
| 1787759309 | 26.11° C | 37% | 1008.6 hPa | 0 mm | - | 37 W/m² | - |
| 1787759004 | 26.11° C | 39% | 1008.7 hPa | 0 mm | - | 37 W/m² | - |
| 1787758704 | 25.56° C | 39% | 1008.6 hPa | 0 mm | - | 37 W/m² | - |
| 1787758400 | 25.56° C | 39% | 1008.9 hPa | 0 mm | - | 37 W/m² | - |
| 1787758098 | 25° C | 40% | 1008.7 hPa | 0 mm | - | 34 W/m² | - |
| 1787757795 | 25° C | 40% | 1008.7 hPa | 0 mm | - | 28 W/m² | - |
| 1787757495 | 25° C | 41% | 1008.8 hPa | 0 mm | - | 30 W/m² | - |
| 1787757189 | 24.44° C | 42% | 1008.5 hPa | 0 mm | - | 30 W/m² | - |
| 1787756887 | 24.44° C | 42% | 1008.8 hPa | 0 mm | - | 30 W/m² | - |
| 1787756584 | 23.89° C | 42% | 1008.8 hPa | 0 mm | - | 30 W/m² | - |
| 1787756283 | 23.89° C | 42% | 1008.7 hPa | 0 mm | - | 30 W/m² | - |
| 1787755978 | 23.89° C | 42% | 1008.6 hPa | 0 mm | - | 30 W/m² | - |
| 1787755677 | 23.33° C | 42% | 1008.6 hPa | 0 mm | - | 30 W/m² | - |
| 1787755373 | 23.33° C | 43% | 1008.7 hPa | 0 mm | - | 28 W/m² | - |
| 1787755072 | 23.89° C | 43% | 1008.7 hPa | 0 mm | - | 24 W/m² | - |
| 1787754766 | 23.89° C | 41% | 1008.6 hPa | 0 mm | - | 22 W/m² | - |
| 1787754464 | 23.89° C | 40% | 1008.5 hPa | 0 mm | - | 27 W/m² | - |
| 1787754159 | 23.33° C | 41% | 1008.5 hPa | 0 mm | - | 28 W/m² | - |
| 1787753854 | 22.22° C | 42% | 1008.6 hPa | 0 mm | - | 27 W/m² | - |
| 1787753553 | 22.22° C | 43% | 1008.5 hPa | 0 mm | - | 26 W/m² | - |
| 1787753251 | 21.67° C | 44% | 1008.5 hPa | 0 mm | - | 25 W/m² | - |
| 1787752947 | 21.11° C | 46% | 1008.6 hPa | 0 mm | - | 24 W/m² | - |
| 1787752645 | 21.11° C | 47% | 1008.5 hPa | 0 mm | - | 24 W/m² | - |
| 1787752341 | 21.11° C | 47% | 1008.5 hPa | 0 mm | - | 25 W/m² | - |
| 1787752040 | 20.56° C | 48% | 1008.5 hPa | 0 mm | - | 26 W/m² | - |
* Rain latest hour (hover to see other rain measurements)
** Current wind speed in m/s (hover to see current wind gust speed)